Liberal, KS

10:45 AM CDT on April 30, 2017 (GMT -0500)
Liberal Municipal

Weather History for KLBL - August, 2013

Change the Weather History Date:

Saturday, August 17, 2013

  Actual Average Record
Temperature  
Mean Temperature 75 °F -  
Max Temperature 84 °F 94 °F 106 °F (1978)
Min Temperature 66 °F 65 °F 57 °F (2012)
Cooling Degree Days 10    
Growing Degree Days 25 (Base 50)    
Moisture  
Dew Point 63 °F    
Average Humidity 70    
Maximum Humidity 88    
Minimum Humidity 51    
Precipitation  
Precipitation 0.00 in - - ()
Sea Level Pressure  
Sea Level Pressure 30.12 in    
Wind  
Wind Speed 13 mph (SE)    
Max Wind Speed 20 mph    
Max Gust Speed 29 mph    
Visibility 10 miles    
Events Thunderstorm    
Averages and records for this station are not official NWS values.
T = Trace of Precipitation, MM = Missing Value Source: NWS Daily Summary

Daily Weather History Graph

Daily Weather History Graph

Search for Another Location

Airport or City:

Trip Planner

Search our weather history database for the weather conditions in past years. The results will help you decide how hot, cold, wet, or windy it might be!

Date:

Astronomy

Aug. 17, 2013 Rise Set
Actual Time 7:02 AM CDT 8:32 PM CDT
Civil Twilight 6:35 AM CDT 8:59 PM CDT
Nautical Twilight 6:01 AM CDT 9:32 PM CDT
Astronomical Twilight 5:27 AM CDT 10:07 PM CDT
Moon 5:47 PM CDT (8/17) 3:10 AM CDT (8/17)
Length of Visible Light 14h 24m
Length of Day
13h 30m
Waxing Gibbous, 84% of the Moon is Illuminated
Aug 17
Waxing Gibbous
Aug 20
Full
Aug 28
Last Quarter
Sep 5
New
Sep 12
First Quarter

Hourly Weather History & Observations

Time (CDT) Temp. Heat Index Dew Point Humidity Pressure Visibility Wind Dir Wind Speed Gust Speed Precip Events Conditions
12:15 AM 71.6 °F - 62.6 °F 73% 30.16 in 10.0 mi SE 12.7 mph - N/A   Clear
12:35 AM 71.6 °F - 62.6 °F 73% 30.16 in 10.0 mi ESE 10.4 mph - N/A   Clear
12:55 AM 69.8 °F - 62.6 °F 78% 30.16 in 10.0 mi SE 11.5 mph - N/A   Clear
1:15 AM 69.8 °F - 62.6 °F 78% 30.16 in 10.0 mi SE 11.5 mph - N/A   Clear
1:35 AM 69.8 °F - 62.6 °F 78% 30.16 in 10.0 mi ESE 11.5 mph - N/A   Clear
1:55 AM 69.8 °F - 62.6 °F 78% 30.16 in 10.0 mi SE 10.4 mph - N/A   Clear
2:15 AM 69.8 °F - 62.6 °F 78% 30.16 in 10.0 mi SE 11.5 mph - N/A   Clear
2:35 AM 68.0 °F - 62.6 °F 83% 30.16 in 10.0 mi SE 10.4 mph - N/A   Partly Cloudy
2:55 AM 68.0 °F - 62.6 °F 83% 30.15 in 10.0 mi SE 11.5 mph - N/A   Clear
3:15 AM 66.2 °F - 62.6 °F 88% 30.15 in 10.0 mi SE 10.4 mph - N/A   Clear
3:35 AM 66.2 °F - 62.6 °F 88% 30.15 in 10.0 mi SE 11.5 mph - N/A   Clear
3:55 AM 66.2 °F - 62.6 °F 88% 30.15 in 9.0 mi SE 10.4 mph - N/A   Clear
4:15 AM 66.2 °F - 62.6 °F 88% 30.14 in 9.0 mi SE 11.5 mph - N/A   Mostly Cloudy
4:35 AM 66.2 °F - 62.6 °F 88% 30.14 in 10.0 mi SE 12.7 mph - N/A   Overcast
4:55 AM 66.2 °F - 62.6 °F 88% 30.14 in 10.0 mi SSE 10.4 mph - N/A   Overcast
5:15 AM 66.2 °F - 62.6 °F 88% 30.14 in 10.0 mi SE 10.4 mph - N/A   Overcast
5:35 AM 66.2 °F - 62.6 °F 88% 30.14 in 9.0 mi SE 10.4 mph - N/A Thunderstorm Thunderstorm
5:55 AM 66.2 °F - 62.6 °F 88% 30.12 in 9.0 mi SSE 10.4 mph - N/A Thunderstorm Overcast
6:15 AM 66.2 °F - 62.6 °F 88% 30.15 in 10.0 mi SE 11.5 mph - N/A Thunderstorm Overcast
6:35 AM 68.0 °F - 62.6 °F 83% 30.14 in 10.0 mi SSE 11.5 mph - N/A   Overcast
6:55 AM 68.0 °F - 62.6 °F 83% 30.14 in 10.0 mi SSE 15.0 mph - N/A   Overcast
7:15 AM 66.2 °F - 62.6 °F 88% 30.14 in 9.0 mi South 13.8 mph - N/A   Overcast
7:35 AM 66.2 °F - 62.6 °F 88% 30.14 in 10.0 mi South 15.0 mph - N/A   Overcast
7:55 AM 68.0 °F - 62.6 °F 83% 30.16 in 10.0 mi SE 12.7 mph - N/A   Overcast
8:15 AM 68.0 °F - 62.6 °F 83% 30.17 in 10.0 mi SE 12.7 mph - N/A   Overcast
8:35 AM 68.0 °F - 62.6 °F 83% 30.16 in 10.0 mi SE 15.0 mph - N/A   Overcast
8:55 AM 68.0 °F - 60.8 °F 78% 30.17 in 10.0 mi SE 15.0 mph - N/A   Overcast
9:15 AM 68.0 °F - 60.8 °F 78% 30.15 in 10.0 mi SSE 15.0 mph - N/A   Scattered Clouds
9:35 AM 68.0 °F - 60.8 °F 78% 30.15 in 10.0 mi South 15.0 mph - N/A   Clear
9:55 AM 68.0 °F - 62.6 °F 83% 30.16 in 10.0 mi SSE 15.0 mph - N/A   Scattered Clouds
10:15 AM 69.8 °F - 62.6 °F 78% 30.14 in 10.0 mi South 17.3 mph 25.3 mph N/A   Mostly Cloudy
10:35 AM 71.6 °F - 62.6 °F 73% 30.16 in 10.0 mi South 15.0 mph 23.0 mph N/A   Mostly Cloudy
10:55 AM 71.6 °F - 62.6 °F 73% 30.16 in 10.0 mi SSE 15.0 mph 20.7 mph N/A   Overcast
11:15 AM 73.4 °F - 64.4 °F 73% 30.15 in 10.0 mi South 17.3 mph - N/A   Mostly Cloudy
11:35 AM 75.2 °F - 64.4 °F 69% 30.15 in 10.0 mi South 16.1 mph 21.9 mph N/A   Scattered Clouds
11:55 AM 77.0 °F - 64.4 °F 65% 30.14 in 10.0 mi South 13.8 mph 24.2 mph N/A   Scattered Clouds
12:15 PM 78.8 °F - 64.4 °F 61% 30.13 in 10.0 mi South 15.0 mph 23.0 mph N/A   Scattered Clouds
12:35 PM 78.8 °F - 64.4 °F 61% 30.13 in 10.0 mi South 16.1 mph 24.2 mph N/A   Mostly Cloudy
12:55 PM 80.6 °F 82.3 °F 64.4 °F 58% 30.12 in 10.0 mi South 15.0 mph 20.7 mph N/A   Mostly Cloudy
1:15 PM 80.6 °F 81.8 °F 62.6 °F 54% 30.11 in 10.0 mi SSE 11.5 mph 18.4 mph N/A   Mostly Cloudy
1:35 PM 80.6 °F 82.3 °F 64.4 °F 58% 30.10 in 10.0 mi SSE 12.7 mph 19.6 mph N/A   Scattered Clouds
1:55 PM 82.4 °F 83.9 °F 64.4 °F 54% 30.09 in 10.0 mi SE 15.0 mph 20.7 mph N/A   Partly Cloudy
2:15 PM 82.4 °F 83.9 °F 64.4 °F 54% 30.09 in 10.0 mi SE 16.1 mph 19.6 mph N/A   Partly Cloudy
2:35 PM 82.4 °F 83.9 °F 64.4 °F 54% 30.09 in 10.0 mi SE 16.1 mph 20.7 mph N/A   Clear
2:55 PM 82.4 °F 83.9 °F 64.4 °F 54% 30.08 in 10.0 mi SE 13.8 mph 19.6 mph N/A   Clear
3:15 PM 84.2 °F 85.6 °F 64.4 °F 51% 30.07 in 10.0 mi SE 16.1 mph 28.8 mph N/A   Clear
3:35 PM 84.2 °F 85.6 °F 64.4 °F 51% 30.07 in 10.0 mi SE 12.7 mph 19.6 mph N/A   Clear
3:55 PM 84.2 °F 85.6 °F 64.4 °F 51% 30.07 in 10.0 mi ESE 15.0 mph 23.0 mph N/A   Clear
4:15 PM 84.2 °F 85.6 °F 64.4 °F 51% 30.07 in 10.0 mi SE 19.6 mph - N/A   Partly Cloudy
4:35 PM 82.4 °F 83.9 °F 64.4 °F 54% 30.06 in 10.0 mi SE 18.4 mph 23.0 mph N/A   Clear
4:55 PM 84.2 °F 85.6 °F 64.4 °F 51% 30.06 in 10.0 mi SE 18.4 mph 25.3 mph N/A   Clear
5:15 PM 82.4 °F 83.9 °F 64.4 °F 54% 30.06 in 10.0 mi ESE 18.4 mph 23.0 mph N/A   Partly Cloudy
5:35 PM 82.4 °F 83.9 °F 64.4 °F 54% 30.06 in 10.0 mi ESE 17.3 mph 23.0 mph N/A   Partly Cloudy
5:55 PM 82.4 °F 83.9 °F 64.4 °F 54% 30.05 in 10.0 mi SE 19.6 mph - N/A   Partly Cloudy
6:15 PM 82.4 °F 83.9 °F 64.4 °F 54% 30.06 in 10.0 mi SE 18.4 mph 24.2 mph N/A   Clear
6:35 PM 82.4 °F 83.4 °F 62.6 °F 51% 30.05 in 10.0 mi SSE 18.4 mph 23.0 mph N/A   Clear
6:55 PM 82.4 °F 83.4 °F 62.6 °F 51% 30.05 in 10.0 mi SSE 18.4 mph - N/A   Clear
7:15 PM 80.6 °F 81.8 °F 62.6 °F 54% 30.05 in 10.0 mi SSE 16.1 mph 21.9 mph N/A   Clear
7:35 PM 80.6 °F 81.8 °F 62.6 °F 54% 30.06 in 10.0 mi SE 16.1 mph - N/A   Clear
7:55 PM 78.8 °F - 62.6 °F 57% 30.06 in 10.0 mi SE 13.8 mph - N/A   Clear
8:15 PM 78.8 °F - 62.6 °F 57% 30.06 in 10.0 mi SE 11.5 mph - N/A   Clear
8:35 PM 77.0 °F - 62.6 °F 61% 30.07 in 10.0 mi SE 15.0 mph 20.7 mph N/A   Clear
8:55 PM 75.2 °F - 62.6 °F 65% 30.08 in 10.0 mi SE 13.8 mph - N/A   Clear
9:15 PM 75.2 °F - 62.6 °F 65% 30.08 in 10.0 mi SE 10.4 mph - N/A   Clear
9:35 PM 73.4 °F - 62.6 °F 69% 30.09 in 10.0 mi SE 12.7 mph - N/A   Clear
9:55 PM 73.4 °F - 62.6 °F 69% 30.10 in 10.0 mi SE 12.7 mph - N/A   Clear
10:15 PM 71.6 °F - 62.6 °F 73% 30.10 in 10.0 mi SE 11.5 mph - N/A   Clear
10:35 PM 71.6 °F - 62.6 °F 73% 30.11 in 10.0 mi SE 13.8 mph - N/A   Clear
10:55 PM 71.6 °F - 60.8 °F 69% 30.11 in 10.0 mi SE 13.8 mph 18.4 mph N/A   Clear
11:15 PM 71.6 °F - 60.8 °F 69% 30.11 in 10.0 mi SE 12.7 mph - N/A   Clear
11:35 PM 69.8 °F - 60.8 °F 73% 30.12 in 10.0 mi SE 13.8 mph - N/A   Clear
11:55 PM 69.8 °F - 60.8 °F 73% 30.12 in 10.0 mi ESE 11.5 mph - N/A   Clear